Weather History for FENTRESS NALF, VA

Change the Weather History Date:

Wednesday, August 13, 2014

  Actual Average (KORF) Record (KORF)
Temperature  
Mean Temperature 82 °F 78 °F  
Max Temperature 91 °F 86 °F 99 °F (1881)
Min Temperature 75 °F 71 °F 59 °F (1950)
Degree Days  
Heating Degree Days 0 0  
Month to date heating degree days 0  
Since 1 June heating degree days 6  
Since 1 July heating degree days 0  
Cooling Degree Days 18 13  
Month to date cooling degree days 179  
Year to date cooling degree days 1114  
Since 1 June cooling degree days 948  
Growing Degree Days 32 (Base 50)    
Moisture  
Dew Point 68 °F    
Average Humidity 66    
Maximum Humidity 85    
Minimum Humidity 41    
Precipitation  
Precipitation 0.02 in 0.18 in 3.79 in (1906)
Month to date precipitation 2.46  
Year to date precipitation 28.88  
Snow  
Snow 0.00 in 0.00 in 0.00 in (2002)
Month to date snowfall 0.0  
Since 1 July snowfall 0.0  
Snow Depth -    
Sea Level Pressure  
Sea Level Pressure 29.81 in    
Wind  
Wind Speed 4 mph (NW)    
Max Wind Speed 9 mph    
Max Gust Speed 22 mph    
Visibility 10 miles    
Events Rain    
T = Trace of Precipitation, MM = Missing Value Source: NWS Daily Summary

Daily Weather History Graph

Daily Weather History Graph

Search for Another Location

Airport:

Trip Planner

Search our weather history database for the weather conditions in past years. The results will help you decide how hot, cold, wet, or windy it might be!

Date:

Astronomy

Aug. 13, 2014 Rise Set
Actual Time 6:20 AM EDT 7:57 PM EDT
Civil Twilight 5:52 AM EDT 8:25 PM EDT
Nautical Twilight 5:19 AM EDT 8:58 PM EDT
Astronomical Twilight 4:43 AM EDT 9:33 PM EDT
Moon 9:49 PM EDT (8/13) 9:39 AM EDT (8/13)
Length of Visible Light 14h 33m
Length of Day
13h 37m
Waning Gibbous, 88% of the Moon is Illuminated
Aug 13
Waning Gibbous
Aug 17
Last Quarter
Aug 25
New
Sep 2
First Quarter
Sep 8
Full

Hourly Weather History & Observations

Time (EDT) Temp. Heat Index Dew Point Humidity Pressure Visibility Wind Dir Wind Speed Gust Speed Precip Events Conditions
12:56 AM 81.0 °F 87.3 °F 75.9 °F 85% 29.81 in 10.0 mi Variable 5.8 mph - 0.01 in Rain Light Rain
1:56 AM 80.1 °F 85.1 °F 75.0 °F 85% 29.75 in 10.0 mi WSW 3.5 mph - 0.01 in Rain Light Rain
2:24 AM 80.1 °F 85.1 °F 75.0 °F 85% 29.74 in 10.0 mi Variable 3.5 mph - 0.00 in   Partly Cloudy
2:56 AM 79.0 °F - 73.9 °F 84% 29.75 in 10.0 mi Variable 4.6 mph - 0.00 in   Clear
3:56 AM 77.0 °F - 69.1 °F 76% 29.77 in 10.0 mi Calm Calm - N/A   Clear
4:56 AM 75.0 °F - 69.1 °F 82% 29.78 in 10.0 mi Calm Calm - N/A   Clear
5:56 AM 75.0 °F - 70.0 °F 84% 29.78 in 10.0 mi Variable 3.5 mph - N/A   Clear
6:41 AM 75.0 °F - 70.0 °F 84% 29.78 in 10.0 mi Calm Calm - N/A   Partly Cloudy
6:56 AM 75.0 °F - 70.0 °F 84% 29.78 in 10.0 mi Calm Calm - N/A   Clear
7:31 AM 75.9 °F - 70.0 °F 82% 29.80 in 10.0 mi Variable 3.5 mph - N/A   Scattered Clouds
7:41 AM 75.9 °F - 71.1 °F 85% 29.81 in 10.0 mi Calm Calm - N/A   Mostly Cloudy
7:56 AM 75.9 °F - 71.1 °F 85% 29.81 in 10.0 mi Variable 3.5 mph - N/A   Overcast
8:20 AM - - - N/A% 29.81 in 10.0 mi Variable 4.6 mph - N/A   Unknown
8:56 AM - - - N/A% 29.81 in 10.0 mi WNW 6.9 mph - N/A   Unknown
9:56 AM 82.9 °F 87.0 °F 70.0 °F 65% 29.82 in 10.0 mi Variable 6.9 mph 21.9 mph N/A   Unknown
10:56 AM 84.9 °F 88.8 °F 69.1 °F 59% 29.83 in 10.0 mi Variable 5.8 mph - N/A   Partly Cloudy
11:56 AM 88.0 °F 90.3 °F 66.0 °F 48% 29.83 in 10.0 mi North 8.1 mph - N/A   Scattered Clouds
12:56 PM 88.0 °F 89.6 °F 64.9 °F 46% 29.83 in 10.0 mi NW 6.9 mph - N/A   Scattered Clouds
1:56 PM 90.0 °F 92.4 °F 66.0 °F 45% 29.82 in 10.0 mi North 5.8 mph - N/A   Mostly Cloudy
2:56 PM 89.1 °F 92.1 °F 66.9 °F 48% 29.82 in 10.0 mi WNW 6.9 mph - N/A   Mostly Cloudy
3:56 PM 88.0 °F 89.3 °F 64.0 °F 45% 29.81 in 10.0 mi NW 9.2 mph 16.1 mph N/A   Mostly Cloudy
4:56 PM 88.0 °F 88.7 °F 63.0 °F 43% 29.82 in 10.0 mi Variable 6.9 mph - N/A   Mostly Cloudy
5:56 PM 87.1 °F 87.0 °F 61.0 °F 41% 29.82 in 10.0 mi Variable 4.6 mph - N/A   Partly Cloudy
6:56 PM 84.9 °F 84.4 °F 59.0 °F 41% 29.84 in 10.0 mi West 6.9 mph - N/A   Partly Cloudy
7:56 PM 81.0 °F 81.3 °F 59.0 °F 47% 29.86 in 10.0 mi Variable 3.5 mph - N/A   Clear
8:56 PM 78.1 °F - 60.1 °F 54% 29.88 in 10.0 mi Calm Calm - N/A   Clear
9:56 PM 75.0 °F - 61.0 °F 62% 29.90 in 10.0 mi Calm Calm - N/A   Clear